This is the latest recevied weather packets stored in our database for station/object N4DBJ. If no packets are shown the sender has not sent any weather packets the latest 1 day(s).
| Time | Temp. | Humidity | Pressure | Rain* | Wind** | Luminosity | Snow |
|---|---|---|---|---|---|---|---|
| 1777998226 | 20° C | 69% | 1009.5 hPa | 0 mm | 1.79 m/s, 274° | 141 W/m² | - |
| 1777997923 | 20.56° C | 70% | 1009.4 hPa | 0 mm | 1.34 m/s, 237° | 174 W/m² | - |
| 1777997620 | 20.56° C | 70% | 1009.4 hPa | 0 mm | 0.89 m/s, 184° | 206 W/m² | - |
| 1777997317 | 20.56° C | 70% | 1009.2 hPa | 0 mm | 0.45 m/s, 105° | 231 W/m² | - |
| 1777997015 | 20.56° C | 71% | 1009.6 hPa | 0 mm | 0.89 m/s, 160° | 249 W/m² | - |
| 1777996711 | 20.56° C | 69% | 1009.7 hPa | 0 mm | 0.89 m/s, 330° | 251 W/m² | - |
| 1777996407 | 20° C | 70% | 1009.8 hPa | 0 mm | 1.79 m/s, 144° | 293 W/m² | - |
| 1777996104 | 20° C | 70% | 1010 hPa | 0 mm | 2.68 m/s, 138° | 273 W/m² | - |
| 1777995800 | 20° C | 71% | 1010.2 hPa | 0 mm | 1.34 m/s, 231° | 214 W/m² | - |
| 1777995497 | 20° C | 72% | 1010 hPa | 0 mm | 0.45 m/s, 132° | 249 W/m² | - |
| 1777995194 | 20° C | 70% | 1010 hPa | 0 mm | 3.13 m/s, 136° | 267 W/m² | - |
| 1777994891 | 20° C | 71% | 1009.8 hPa | 0 mm | 2.24 m/s, 137° | 260 W/m² | - |
| 1777994588 | 20° C | 71% | 1009.7 hPa | 0 mm | 1.34 m/s, 175° | 280 W/m² | - |
| 1777994282 | 20° C | 70% | 1009.7 hPa | 0 mm | 4.02 m/s, 225° | 253 W/m² | - |
| 1777993979 | 20° C | 71% | 1009.6 hPa | 0 mm | 0.45 m/s, 329° | 251 W/m² | - |
| 1777993676 | 20° C | 71% | 1009.5 hPa | 0 mm | 1.34 m/s, 139° | 273 W/m² | - |
| 1777993373 | 20° C | 71% | 1009.3 hPa | 0 mm | 1.34 m/s, 112° | 296 W/m² | - |
| 1777993073 | 19.44° C | 71% | 1009.8 hPa | 0 mm | 0.45 m/s, 12° | 334 W/m² | - |
| 1777992772 | 19.44° C | 71% | 1009.4 hPa | 0 mm | 1.34 m/s, 173° | 345 W/m² | - |
| 1777992469 | 19.44° C | 72% | 1009.7 hPa | 0 mm | 1.79 m/s, 291° | 317 W/m² | - |
| 1777992167 | 18.89° C | 73% | 1009.5 hPa | 0 mm | 0.45 m/s, 182° | 321 W/m² | - |
| 1777991864 | 18.89° C | 73% | 1009.5 hPa | 0 mm | 1.34 m/s, 148° | 290 W/m² | - |
| 1777991562 | 18.89° C | 73% | 1009.2 hPa | 0 mm | 1.34 m/s, 283° | 294 W/m² | - |
| 1777991258 | 18.89° C | 74% | 1009.5 hPa | 0 mm | 0.89 m/s, 194° | 291 W/m² | - |
| 1777990956 | 18.89° C | 74% | 1009.3 hPa | 0 mm | 1.34 m/s, 258° | 229 W/m² | - |
* Rain latest hour (hover to see other rain measurements)
** Current wind speed in m/s (hover to see current wind gust speed)